www.pogodaiklimat.ru

Погода и климат >> Архив погоды >> Австралия >> Dalwallinu


ПОГОДА в Dalwallinu

  • Прогноз погоды в Dalwallinu
  • Монитор погоды в Dalwallinu
  • Климат города

АРХИВ ПОГОДЫ в Dalwallinu

Время (UTC), дата Ветер
(напр.,м/с)
 
Видим.   Явления Облачность Т
(С)
Тd
(С)
f
(%)
Тe
(С)
Тes
(С)
Комфортность P
(гПа)
Po
(гПа)
Тmin
(С)
Tmax
(С)
R
(мм)
R24
(мм)
S
(см)
13 8.08 СЗ 5 н/о н/о +11.5 +9.1 85 +9 +9 1014.0 975.6 +17.1
16 8.08 СЗ 5 н/о н/о +12.2 +9.6 84 +10 +10 1012.0 973.6
19 8.08 СЗ 5 н/о н/о +11.1 +10.0 93 +8 +8 1009.4 971.1
22 8.08 СЗ 8 н/о н/о +12.1 +10.3 89 +9 +9 1007.2 969.0
01 9.08 З 7 н/о {туман} н/о +10.4 +9.0 91 +7 +7 1011.4 973.1 +9.6
04 9.08 З 8 н/о {туман} н/о +13.4 +9.1 75 +11 +11 1012.1 973.7
07 9.08 З 5 н/о {туман} н/о +9.7 +7.1 84 +7 +7 1013.3 974.9
10 9.08 З 5 н/о {туман} н/о +8.7 +5.3 79 +5 +5 1015.4 976.9
13 9.08 З 4 н/о {туман} н/о +7.0 +4.5 84 +3 +3 1018.3 979.7 +14.5
16 9.08 Ю 5 н/о {туман} н/о +6.2 +4.7 90 +2 +2 1020.3 981.6
19 9.08 ЮЗ 3 н/о {туман} н/о +5.6 +4.2 91 +2 +2 1021.6 982.9
22 9.08 ЮЗ 4 н/о н/о +4.5 +2.8 89 0 0 1023.3 984.5
01 10.08 ЮЗ 4 н/о н/о +7.4 +3.6 77 +4 +4 1026.9 988.0 +4.2
04 10.08 Ю 5 н/о н/о +10.6 +3.4 61 +8 +8 1027.3 988.4
07 10.08 Ю 4 н/о н/о +12.1 +4.6 60 +10 +10 1026.6 987.7
10 10.08 Ю 2 н/о н/о +10.1 +4.3 67 +9 +9 1028.8 989.8
13 10.08 ЮЗ 3 н/о н/о +8.3 +4.3 76 +6 +6 1030.7 991.6
16 10.08 ЮЗ 3 н/о н/о +5.7 +3.2 84 +3 +3 1030.1 991.1
19 10.08 Ю 3 н/о н/о +4.5 +3.3 92 +1 +1 1029.2 990.2
22 10.08 штиль 0 н/о н/о +2.5 +1.5 93 +1 +1 1029.1 990.1
01 11.08 В 2 н/о н/о +8.2 +6.5 89 +6 +6 1031.6 992.5
04 11.08 СВ 4 н/о {туман} н/о +12.5 +6.8 68 +11 +11 1030.0 991.0
07 11.08 ЮВ 2 н/о {туман} н/о +13.6 +5.7 59 +13 +13 1028.2 989.2
10 11.08 В 2 н/о н/о +9.0 +5.9 81 +7 +7 1027.9 988.9
13 11.08 ЮВ 3 н/о н/о +6.8 +3.9 82 +4 +4 1029.0 990.0 +14.8
16 11.08 В 3 н/о н/о +4.9 +2.8 86 +2 +2 1027.9 988.9
19 11.08 СВ 2 н/о н/о +4.6 +2.9 89 +2 +2 1026.9 988.0
22 11.08 СВ 3 н/о н/о +1.7 +0.2 90 -2 -2 1026.7 987.8
01 12.08 СВ 4 н/о н/о +8.2 +4.8 79 +5 +5 1028.1 989.1 +1.5
04 12.08 С 8 н/о н/о +16.1 +4.5 46 +15 +15 1026.3 987.4
07 12.08 С 6 н/о н/о +17.7 +3.6 39 +17 +17 1023.8 985.0
10 12.08 З 2 н/о н/о +14.6 +5.7 55 +14 +14 1023.7 984.9
13 12.08 штиль 0 н/о н/о +9.8 +5.4 74 +9 +9 1024.2 985.4 +18.1
16 12.08 штиль 0 н/о н/о +7.7 +4.5 80 +7 +7 1023.3 984.5
19 12.08 С 2 н/о н/о +5.5 +1.8 77 +4 +4 1021.9 983.2
22 12.08 С 3 н/о н/о +3.0 -0.1 80 -1 -1 1021.6 982.9
01 13.08 С 6 н/о н/о +10.9 +5.0 67 +8 +8 1021.9 983.2 +2.7
04 13.08 С 8 н/о {туман} н/о +18.8 +6.9 46 +18 +18 1020.4 981.7
07 13.08 СЗ 7 н/о {туман} н/о +20.1 +5.0 37 +20 +20 1018.4 979.8
10 13.08 СЗ 4 н/о н/о +14.4 +6.0 57 +13 +13 1017.8 979.2
13 13.08 СЗ 4 н/о н/о +12.3 +5.2 62 +11 +11 1018.2 979.6 +20.7
16 13.08 СЗ 4 н/о н/о +9.7 +5.9 77 +7 +7 1018.4 979.8
19 13.08 СЗ 4 н/о н/о +8.1 +4.7 79 +5 +5 1017.4 978.8
22 13.08 СЗ 5 н/о н/о +9.8 +6.3 79 +7 +7 1017.3 978.7
01 14.08 СЗ 4 н/о {туман} н/о +10.6 +9.5 93 +8 +8 1019.9 981.2 +6.8
04 14.08 Ю 3 н/о {туман} н/о +13.8 +12.5 92 +13 +13 1019.7 981.0
07 14.08 З 3 н/о {туман} н/о +15.1 +12.1 82 +14 +14 1019.2 980.6
10 14.08 ЮЗ 3 н/о н/о +13.5 +9.9 79 +12 +12 1020.5 981.8
13 14.08 ЮЗ 4 н/о {туман} н/о +9.7 +7.0 83 +7 +7 1022.7 983.9 +16.0
16 14.08 ЮЗ 4 н/о н/о +8.3 +6.4 88 +5 +5 1022.4 983.6
19 14.08 ЮЗ 2 н/о н/о +7.1 +5.4 89 +5 +5 1022.8 984.0
22 14.08 штиль 0 н/о н/о +7.3 +6.4 94 +6 +6 1023.5 984.7
01 15.08 Ю 2 н/о н/о +10.1 +9.2 94 +8 +8 1025.1 986.2 +5.2
04 15.08 ЮВ 5 н/о н/о +12.8 +7.5 70 +11 +11 1024.4 985.6
07 15.08 ЮВ 4 н/о н/о +13.2 +6.3 63 +12 +12 1023.2 984.4
10 15.08 Ю 2 н/о н/о +11.4 +6.1 70 +10 +10 1023.0 984.2

 

Местоположение метеостанции Dalwallinu (Западная Австралия, Австралия): широта -30.28 долгота 116.67 высота над уровнем моря 326 м.

В архиве по умолчанию представлена погода в Dalwallinu за последнюю неделю. Архивные данные за месяц целиком и за предыдущие месяцы, начиная с января 2011 года, Вы можете получить, выбрав интересующий диапазон дат из раскрывающегося списка и нажав кнопку "Ввод!".


*Определитесь, кто Вы:
робот инопланетянин человек

Внимание! Время в таблицах - всемирное. Для получения местного времени необходимо прибавить поправку, которая в Dalwallinu равна 8 ч.

Смотрите также архив погоды в соседних городах и на ближайших метеорологических станциях:

Погода в Rottnest Island Lighthouse (Западная Австралия, Австралия) (110 км)
Погода в Morawa Airport (Западная Австралия, Австралия) (136 км)
Погода в Gingin Aero (Западная Австралия, Австралия) (153 км)
Погода в Cunderdin Airfield (Западная Австралия, Австралия) (158 км)
Погода в Bullsbrook Pearce Amo (Западная Австралия, Австралия) (167 км)
Погода в Wanneroo (Западная Австралия, Австралия) (187 км)
Погода в Goosebery Hill (Западная Австралия, Австралия) (195 км)
Погода в Perth (Западная Австралия, Австралия) (196 км)
Погода в Mount Lawley Perth Metro (Западная Австралия, Австралия) (198 км)
Погода в Kalamunda Bickley (Западная Австралия, Австралия) (200 км)

Пояснения к столбцам:

Ветер - указаны скорость ветра в м/с - средняя за 10 мин, порывы в срок и между сроками (в фигурных скобках) и направление, откуда дует ветер: С - северный, СВ - северо-восточный, В - восточный, ЮВ - юго-восточный, Ю - южный, ЮЗ - юго-западный, З - западный, СЗ - северо-западный.
Видимость - горизонтальная дальность видимости в метрах или километрах. При видимости от 1 до 10 км при отсутствии осадков обычно наблюдается дымка, при ухудшении видимости до 1 км и менее - туман. В сухую погоду видимость может ухудшаться дымом, пылью или мглою.
Явления - указаны атмосферные явления, наблюдавшиеся в срок или в последний час перед сроком; фигурными скобками обозначены явления, наблюдавшиеся между сроками (за 1-3 часа до срока); квадратными скобками обозначены град или гололедные отложения с указанием их диаметра в мм.
Облачность - указаны через наклонную черту общая и нижняя облачность в баллах и высота нижней границы облаков в метрах; квадратными скобками обозначены формы облаков: Ci - перистые, Cs - перисто-слоистые, Cc - перисто-кучевые, Ac - высококучевые, As - высокослоистые, Sc - слоисто-кучевые, Ns - слоисто-дождевые, Cu - кучевые, Cb - кучево-дождевые. Подробнее классификацию облаков см. в Атласе облаков (PDF).
T - Температура воздуха - температура, измеренная на высоте 2 м над землей.
Td - Температура точки росы - температура, при понижении до которой содержащийся в воздухе водяной пар достигнет насыщения.
f - Относительная влажность воздуха - влажноcть воздуха, измеренная на высоте 2 м над землей.
Te - Эффективная температура - температура, которую ощущает одетый по сезону человек в тени. Характеристика душности погоды. При расчете учитывается влияние влажности воздуха и скорости ветра на теплоощущения человека.
Tes - Эффективная температура на солнце - температура, которую ощущает человек, с поправкой на солнечный нагрев. Характеристика знойности погоды. Зависит от высоты солнца над горизонтом, облачности и скорости ветра. Ночью, в пасмурную погоду, а также при ветре 12 м/с и более поправка равна нулю.
P - Атмосферное давление - приведенное к уровню моря атмосферное давление.
Po - Атмосферное давление - измеренное на уровне метеостанции атмосферное давление.
Tmin - Минимальная температура - минимум температуры воздуха на высоте 2 м над землей.
Tmax - Максимальная температура - максимум температуры воздуха на высоте 2 м над землей.
R - Количество осадков - Количество выпавших осадков за период времени, мм. При наведении курсора мыши на число - период времени, за который выпало указанное количество осадков.
R24 - Количество осадков - Количество выпавших осадков за 24 часа, мм.
S - Снежный покров - Высота снежного покрова, см. При наведении курсора мыши на число - состояние снежного покрова и степень покрытия местности в баллах.